Location: Boćki
(52.6512°N, 23.0459°E)
Time: 12:52:14
(UTC+02:00)

ISS - Pass Details

Date: 30 January 2019
Orbit: 411 x 421 km, 51.6° (Epoch: 16 October)

Event Time Altitude Azimuth Distance (km) Brightness Sun altitude
Rises 19:07:28 0° 276° (W) 2,376 1.4 -26.9°
Reaches altitude 10° 19:09:35 10° 273° (W) 1,511 0.0 -27.3°
Enters shadow 19:11:00 23° 268° (W) 955 -1.3 -27.5°
